User: anonymous   Login
Location: Unspecified
(0.0000°N, 0.0000°E)
Time: 16:44:28
(UTC+00:00)
Language:

SWISSCUBE - Orbit

View from above orbital plane
View from above orbital plane
View from above satellite
View from above satellite

Ground track
Ground track

The orbit data is extracted from the following two-line orbital elements,

1 35932U 09051B   17206.06977758 +.00000095 +00000-0 +32389-4 0  9995
2 35932 098.5008 345.2618 0008703 129.7060 230.4905 14.56028491415795
Epoch (UTC): 25 July 2017 01:40:28
Eccentricity: 0.0008703
inclination: 98.5008°
perigee height: 700 km
apogee height: 712 km
right ascension of ascending node: 345.2618°
argument of perigee: 129.7060°
revolutions per day: 14.56028491
mean anomaly at epoch: 230.4905°
orbit number at epoch: 41579

The dashed part of the orbit path shows where the satellite is in the earth's shadow,  

DLR